Grand Rapids, MN

6:41 AM CST on November 20, 2019 (GMT -0600)
Grand Rapids-Itasca County-Newstrom Field

Weather History for KGPZ - September, 2019

Change the Weather History Date:

Monday, September 23, 2019

  Actual Average Record
Temperature  
Mean Temperature 59 °F -  
Max Temperature 72 °F 60 °F 87 °F (1936)
Min Temperature 46 °F 37 °F 24 °F (1971)
Degree Days  
Heating Degree Days 6    
Growing Degree Days 9 (Base 50)    
Moisture  
Dew Point 50 °F    
Average Humidity 78    
Maximum Humidity 100    
Minimum Humidity 42    
Precipitation  
Precipitation 0.00 in - - ()
Sea Level Pressure  
Sea Level Pressure 29.92 in    
Wind  
Wind Speed 3 mph ()    
Max Wind Speed 13 mph    
Max Gust Speed 17 mph    
Visibility 8.3 miles    
Events      
Averages and records for this station are not official NWS values.
T = Trace of Precipitation, MM = Missing Value Source: Averaged Metar Reports

Daily Weather History Graph

Daily Weather History Graph

Search for Another Location

Airport or City:

Astronomy

Sep. 23, 2019 Rise Set
Actual Time 7:01 AM CDT 7:10 PM CDT
Civil Twilight 6:31 AM CDT 7:40 PM CDT
Nautical Twilight 5:55 AM CDT 8:16 PM CDT
Astronomical Twilight 5:18 AM CDT 8:53 PM CDT
Moon 12:20 AM CDT (9/23) 4:29 PM CDT (9/23)
Length of Visible Light 13h 09m
Length of Day
12h 08m
Waning Crescent, 33% of the Moon is Illuminated
Sep 23
Waning Crescent
Sep 28
New
Oct 5
First Quarter
Oct 13
Full
Oct 21
Last Quarter

Hourly Weather History & Observations

Time (CDT) Temp. Dew Point Humidity Pressure Visibility Wind Dir Wind Speed Gust Speed Precip Events Conditions
12:56 AM 57.0 °F 52.0 °F 83% 29.90 in 10.0 mi WSW 3.5 mph - N/A   Overcast
1:56 AM 55.9 °F 52.0 °F 87% 29.91 in 10.0 mi Calm Calm - N/A   Overcast
2:56 AM 55.0 °F 52.0 °F 89% 29.91 in 10.0 mi Calm Calm - N/A   Mostly Cloudy
3:56 AM 55.0 °F 51.1 °F 86% 29.91 in 10.0 mi WSW 4.6 mph - N/A   Clear
4:56 AM 55.0 °F 50.0 °F 83% 29.91 in 10.0 mi WSW 3.5 mph - N/A   Clear
5:56 AM 51.1 °F 50.0 °F 96% 29.91 in 10.0 mi Calm Calm - N/A   Partly Cloudy
6:39 AM 48.2 °F 48.2 °F 100% 29.90 in 1.8 mi Calm Calm - N/A   Partly Cloudy
6:51 AM 48.2 °F 48.2 °F 100% 29.90 in 3.0 mi Calm Calm - N/A   Partly Cloudy
6:56 AM 48.0 °F 48.0 °F 100% 29.93 in 9.0 mi Calm Calm - N/A   Scattered Clouds
7:10 AM 48.2 °F 46.4 °F 93% 29.91 in 1.8 mi Calm Calm - N/A   Partly Cloudy
7:14 AM 48.2 °F 46.4 °F 93% 29.91 in 0.8 mi Calm Calm - N/A   Partly Cloudy
7:32 AM 48.2 °F 48.2 °F 100% 29.91 in 1.2 mi Calm Calm - N/A   Mostly Cloudy
7:37 AM 48.2 °F 46.4 °F 93% 29.92 in 4.0 mi Calm Calm - N/A   Mostly Cloudy
7:56 AM 46.9 °F 46.9 °F 100% 29.94 in 8.0 mi Calm Calm - N/A   Mostly Cloudy
8:56 AM 57.9 °F 52.0 °F 81% 29.94 in 10.0 mi West 3.5 mph - N/A   Clear
9:56 AM 60.1 °F 52.0 °F 75% 29.96 in 10.0 mi WSW 4.6 mph - N/A   Clear
10:56 AM 63.0 °F 51.1 °F 65% 29.96 in 10.0 mi West 4.6 mph - N/A   Clear
11:56 AM 64.0 °F 48.0 °F 56% 29.97 in 10.0 mi West 8.1 mph - N/A   Clear
12:56 PM 66.9 °F 48.0 °F 51% 29.96 in 10.0 mi WSW 9.2 mph - N/A   Clear
1:56 PM 69.1 °F 48.0 °F 47% 29.94 in 10.0 mi WNW 8.1 mph - N/A   Clear
2:56 PM 71.1 °F 46.9 °F 42% 29.92 in 10.0 mi West 12.7 mph 17.3 mph N/A   Clear
3:56 PM 72.0 °F 48.9 °F 44% 29.92 in 10.0 mi WSW 5.8 mph - N/A   Clear
4:56 PM 72.0 °F 50.0 °F 46% 29.92 in 10.0 mi Variable 6.9 mph - N/A   Clear
5:56 PM 70.0 °F 51.1 °F 51% 29.92 in 10.0 mi WSW 5.8 mph - N/A   Clear
6:56 PM 64.0 °F 52.0 °F 65% 29.91 in 10.0 mi SSW 3.5 mph - N/A   Clear
7:56 PM 57.9 °F 53.1 °F 84% 29.92 in 10.0 mi SSW 4.6 mph - N/A   Clear
8:56 PM 55.0 °F 52.0 °F 89% 29.91 in 10.0 mi SSE 4.6 mph - N/A   Clear
9:56 PM 54.0 °F 50.0 °F 86% 29.91 in 10.0 mi South 5.8 mph - N/A   Clear
10:56 PM 54.0 °F 48.9 °F 83% 29.90 in 10.0 mi South 5.8 mph - N/A   Clear
11:56 PM 54.0 °F 48.0 °F 80% 29.88 in 10.0 mi South 6.9 mph - N/A   Clear